Location: Peterborough
(44.3091°N, 78.3197°W)
Time: 07:28:29
(UTC-04:00)

Vanguard 2 - Pass Details

Date: 27 March 2023
Orbit: 552 x 2926 km, 32.9° (Epoch: 04 June)

Event Time Altitude Azimuth Distance (km) Brightness Sun altitude
Rises 11:35:12 0° 274° (W) 6,181 11.9 42.5°
Reaches altitude 10° 11:40:32 10° 264° (W) 4,800 11.5 43.1°
Maximum altitude 11:50:18 27° 215° (SW) 2,819 11.0 44.0°
Drops below altitude 10° 11:57:04 10° 161° (SSE) 3,232 11.8 44.6°
Sets 11:59:53 0° 148° (SSE) 3,892 11.9 44.9°
